Change the Weather History Date:

Tuesday, August 26, 2014

  Actual Average Record
Temperature  
Mean Temperature 79 °F -  
Max Temperature 89 °F 89 °F 91 °F (2011)
Min Temperature 68 °F 68 °F 62 °F (2012)
Cooling Degree Days 14    
Growing Degree Days 29 (Base 50)    
Moisture  
Dew Point 62 °F    
Average Humidity 62    
Maximum Humidity 100    
Minimum Humidity 31    
Precipitation  
Precipitation 0.00 in - - ()
Sea Level Pressure  
Sea Level Pressure 30.05 in    
Wind  
Wind Speed 5 mph (NNE)    
Max Wind Speed 13 mph    
Max Gust Speed 17 mph    
Visibility 10 miles    
Events      
Averages and records for this station are not official NWS values.
T = Trace of Precipitation, MM = Missing Value Source: NWS Daily Summary

Daily Weather History Graph

Daily Weather History Graph

Search for Another Location

Airport or City:

Trip Planner

Search our weather history database for the weather conditions in past years. The results will help you decide how hot, cold, wet, or windy it might be!

Date:

Astronomy

Aug. 26, 2014 Rise Set
Actual Time 6:53 AM EDT 7:54 PM EDT
Civil Twilight 6:27 AM EDT 8:20 PM EDT
Nautical Twilight 5:57 AM EDT 8:50 PM EDT
Astronomical Twilight 5:26 AM EDT 9:21 PM EDT
Moon 7:46 AM EDT (8/26) 8:22 PM EDT (8/26)
Length of Visible Light 13h 52m
Length of Day
13h 01m
New Moon, 1% of the Moon is Illuminated
Aug 26
New Moon
Sep 2
First Quarter
Sep 8
Full
Sep 15
Last Quarter
Sep 24
New

Hourly Weather History & Observations

Time (EDT) Temp. Heat Index Dew Point Humidity Pressure Visibility Wind Dir Wind Speed Gust Speed Precip Events Conditions
12:15 AM 73.4 °F - 69.8 °F 88% 30.06 in 10.0 mi NNE 5.8 mph - N/A   Overcast
12:55 AM 73.4 °F - 69.8 °F 88% 30.06 in 10.0 mi NNE 3.5 mph - N/A   Overcast
1:35 AM 73.4 °F - 73.4 °F 100% 30.06 in 10.0 mi North 4.6 mph - N/A   Clear
2:15 AM 73.4 °F - 71.6 °F 94% 30.06 in 10.0 mi North 3.5 mph - N/A   Overcast
2:55 AM 73.4 °F - 71.6 °F 94% 30.05 in 10.0 mi Calm Calm - N/A   Overcast
3:15 AM 73.4 °F - 71.6 °F 94% 30.05 in 10.0 mi NNE 4.6 mph - N/A   Overcast
3:35 AM 71.6 °F - 71.6 °F 100% 30.04 in 7.0 mi NNE 5.8 mph - N/A   Drizzle
3:55 AM 71.6 °F - - N/A% 30.04 in 10.0 mi North 4.6 mph - N/A   Overcast
4:15 AM 71.6 °F - - N/A% 30.04 in 10.0 mi NNE 4.6 mph - N/A   Mostly Cloudy
4:35 AM 71.6 °F - - N/A% 30.03 in 10.0 mi NNE 5.8 mph - N/A   Scattered Clouds
4:55 AM 71.6 °F - 71.6 °F 100% 30.04 in 10.0 mi NE 5.8 mph - N/A   Scattered Clouds
5:15 AM 71.6 °F - 71.6 °F 100% 30.04 in 10.0 mi NE 5.8 mph - N/A   Clear
5:35 AM 71.6 °F - 71.6 °F 100% 30.04 in 10.0 mi NE 4.6 mph - N/A   Clear
5:55 AM 71.6 °F - 71.6 °F 100% 30.04 in 10.0 mi NE 5.8 mph - N/A   Clear
6:15 AM 71.6 °F - 71.6 °F 100% 30.05 in 10.0 mi NE 5.8 mph - N/A   Clear
6:35 AM 71.6 °F - 71.6 °F 100% 30.06 in 10.0 mi NE 4.6 mph - N/A   Clear
6:55 AM 69.8 °F - 69.8 °F 100% 30.06 in 10.0 mi NNE 3.5 mph - N/A   Clear
7:15 AM 69.8 °F - 69.8 °F 100% 30.06 in 10.0 mi Calm Calm - N/A   Clear
7:35 AM 69.8 °F - 69.8 °F 100% 30.06 in 10.0 mi NNE 3.5 mph - N/A   Clear
7:55 AM 71.6 °F - 69.8 °F 94% 30.07 in 10.0 mi NNE 4.6 mph - N/A   Scattered Clouds
8:15 AM 71.6 °F - 68.0 °F 88% 30.07 in 10.0 mi NNE 5.8 mph - N/A   Clear
8:35 AM 73.4 °F - 64.4 °F 73% 30.07 in 10.0 mi NNE 9.2 mph - N/A   Clear
8:55 AM 73.4 °F - 64.4 °F 73% 30.07 in 10.0 mi NE 9.2 mph - N/A   Clear
9:15 AM 77.0 °F - 62.6 °F 61% 30.08 in 10.0 mi NNE 4.6 mph - N/A   Clear
9:55 AM 78.8 °F - 59.0 °F 51% 30.08 in 10.0 mi ENE 6.9 mph - N/A   Clear
10:55 AM 80.6 °F 80.5 °F 55.4 °F 42% 30.08 in 10.0 mi NNE 9.2 mph 16.1 mph N/A   Clear
11:15 AM 82.4 °F 82.0 °F 57.2 °F 42% 30.09 in 10.0 mi North 8.1 mph - N/A   Clear
11:35 AM 82.4 °F 81.7 °F 55.4 °F 39% 30.08 in 10.0 mi NNE 8.1 mph 17.3 mph N/A   Clear
11:55 AM 84.2 °F 83.5 °F 57.2 °F 40% 30.08 in 10.0 mi North 11.5 mph - N/A   Clear
12:15 PM 84.2 °F 83.5 °F 57.2 °F 40% 30.08 in 10.0 mi North 12.7 mph 17.3 mph N/A   Clear
12:35 PM 86.0 °F 84.9 °F 57.2 °F 37% 30.08 in 10.0 mi North 8.1 mph 17.3 mph N/A   Clear
12:55 PM 86.0 °F 84.5 °F 55.4 °F 35% 30.07 in 10.0 mi NNE 8.1 mph - N/A   Clear
1:15 PM 86.0 °F 84.5 °F 55.4 °F 35% 30.07 in 10.0 mi North 11.5 mph 16.1 mph N/A   Clear
1:35 PM 86.0 °F 84.5 °F 55.4 °F 35% 30.07 in 10.0 mi NNE 8.1 mph 17.3 mph N/A   Clear
1:55 PM 87.8 °F 86.1 °F 55.4 °F 33% 30.06 in 10.0 mi NNE 10.4 mph - N/A   Scattered Clouds
2:35 PM 87.8 °F 86.1 °F 55.4 °F 33% 30.05 in 10.0 mi NNW 10.4 mph - N/A   Clear
2:55 PM 89.6 °F 87.7 °F 55.4 °F 31% 30.05 in 10.0 mi North 9.2 mph - N/A   Clear
3:15 PM 87.8 °F 86.1 °F 55.4 °F 33% 30.03 in 10.0 mi North 4.6 mph - N/A   Clear
3:35 PM 87.8 °F 86.1 °F 55.4 °F 33% 30.03 in 10.0 mi NNE 10.4 mph - N/A   Clear
3:55 PM 87.8 °F 86.1 °F 55.4 °F 33% 30.03 in 10.0 mi NE 10.4 mph - N/A   Clear
4:15 PM 87.8 °F 86.1 °F 55.4 °F 33% 30.03 in 10.0 mi ENE 8.1 mph - N/A   Clear
4:35 PM 87.8 °F 86.1 °F 55.4 °F 33% 30.03 in 10.0 mi NE 10.4 mph 17.3 mph N/A   Clear
4:55 PM 87.8 °F 86.1 °F 55.4 °F 33% 30.03 in 10.0 mi NNE 5.8 mph - N/A   Clear
5:15 PM 86.0 °F 84.5 °F 55.4 °F 35% 30.02 in 10.0 mi NE 6.9 mph - N/A   Scattered Clouds
5:35 PM 86.0 °F 84.5 °F 55.4 °F 35% 30.03 in 10.0 mi NE 6.9 mph - N/A   Clear
5:55 PM 87.8 °F 85.7 °F 53.6 °F 31% 30.02 in 10.0 mi ENE 8.1 mph - N/A   Clear
6:15 PM 86.0 °F 84.2 °F 53.6 °F 33% 30.03 in 10.0 mi East 8.1 mph - N/A   Clear
6:35 PM 86.0 °F - 51.8 °F 31% 30.03 in 10.0 mi East 8.1 mph - N/A   Clear
6:55 PM 86.0 °F 84.2 °F 53.6 °F 33% 30.03 in 10.0 mi ENE 8.1 mph - N/A   Clear
7:15 PM 84.2 °F 82.8 °F 53.6 °F 35% 30.02 in 10.0 mi ENE 3.5 mph - N/A   Clear
7:35 PM 82.4 °F 81.7 °F 55.4 °F 39% 30.02 in 10.0 mi Calm Calm - N/A   Clear
7:55 PM 80.6 °F 81.1 °F 59.0 °F 48% 30.03 in 10.0 mi Calm Calm - N/A   Clear
8:15 PM 78.8 °F - 59.0 °F 51% 30.03 in 10.0 mi NNE 3.5 mph - N/A   Clear
8:35 PM 77.0 °F - 60.8 °F 57% 30.03 in 10.0 mi Calm Calm - N/A   Clear
8:55 PM 73.4 °F - 60.8 °F 65% 30.03 in 10.0 mi Calm Calm - N/A   Clear
9:15 PM 73.4 °F - 60.8 °F 65% 30.04 in 10.0 mi Calm Calm - N/A   Clear
9:35 PM 73.4 °F - 62.6 °F 69% 30.04 in 10.0 mi NNE 3.5 mph - N/A   Clear
9:55 PM 71.6 °F - 62.6 °F 73% 30.04 in 10.0 mi NNE 3.5 mph - N/A   Clear
10:15 PM 73.4 °F - 60.8 °F 65% 30.05 in 10.0 mi NNE 3.5 mph - N/A   Clear
10:35 PM 73.4 °F - 60.8 °F 65% 30.05 in 10.0 mi NNE 3.5 mph - N/A   Clear
10:55 PM 71.6 °F - 60.8 °F 69% 30.05 in 10.0 mi North 3.5 mph - N/A   Clear
11:15 PM 69.8 °F - 62.6 °F 78% 30.04 in 10.0 mi North 3.5 mph - N/A   Clear
11:35 PM 69.8 °F - 62.6 °F 78% 30.04 in 10.0 mi Calm Calm - N/A   Clear
11:55 PM 68.0 °F - 68.0 °F 100% 30.05 in 10.0 mi Calm Calm - N/A   Clear